DW8248 Weather Reports


time (UTC)temp
C
wind
direction
speed
KPH
gust
KPH
rain 1hr
cm
rain 24hr
cm
rain mn
cm
humidity
%
barometer
mb
20260510151719 30 205 12.9 20.9 0.00 0.30 0.00 60 1016.3
20260510150652 29 227 12.9 17.7 0.00 0.30 0.00 64 1016.4
20260510144449 28 194 9.7 17.7 0.00 0.30 0.00 67 1016.3
20260510143424 28 216 8.0 14.5 0.00 0.30 0.00 70 1016.3
20260510142353 28 232 6.4 11.3 0.00 0.30 0.00 70 1016.2
20260510135031 27 237 4.8 9.7 0.00 0.30 0.00 79 1016.1
20260510134028 26 211 8.0 11.3 0.00 0.30 0.00 82 1016.2
20260510132953 26 215 8.0 11.3 0.00 0.30 0.00 83 1016.1
20260510131924 26 220 6.4 8.0 0.00 0.30 0.00 84 1016.1
20260510125757 25 187 6.4 9.7 0.00 0.30 0.00 86 1015.8
20260510124805 25 215 8.0 9.7 0.00 0.30 0.00 86 1015.9
20260510123827 25 220 6.4 9.7 0.00 0.30 0.00 87 1015.8
20260510122828 25 214 4.8 9.7 0.00 0.30 0.00 87 1015.5
20260510121818 25 214 8.0 9.7 0.00 0.30 0.00 87 1015.4
20260510120816 25 195 6.4 9.7 0.00 0.30 0.00 87 1015.2
20260510115806 25 224 6.4 12.9 0.00 0.30 0.00 87 1015.2
20260510114825 25 218 9.7 14.5 0.00 0.30 0.00 87 1015.1
20260510113830 25 206 11.3 14.5 0.00 0.30 0.00 87 1014.7
20260510112759 25 208 9.7 12.9 0.00 0.30 0.00 87 1014.4
20260510111821 25 207 8.0 11.3 0.00 0.30 0.00 87 1014.3
20260510110819 25 219 8.0 12.9 0.00 0.30 0.00 87 1014.2
20260510105831 25 233 11.3 14.5 0.00 0.30 0.00 87 1014.2
20260510104756 25 219 11.3 14.5 0.00 0.30 0.00 87 1014.0
20260510103757 25 215 8.0 11.3 0.00 0.30 0.00 86 1013.9
20260510102748 25 219 8.0 9.7 0.00 0.30 0.00 86 1013.8
20260510101759 25 227 8.0 9.7 0.00 0.30 0.00 86 1013.8
20260510100729 25 217 6.4 8.0 0.00 0.30 0.00 86 1013.5
20260510095749 26 239 4.8 6.4 0.00 0.30 0.00 86 1013.5
20260510094734 26 246 3.2 4.8 0.00 0.30 0.00 86 1013.4
20260510093749 26 271 0.0 4.8 0.00 0.30 0.00 86 1013.3
20260510092717 25 194 0.0 0.0 0.00 0.30 0.00 86 1013.2
20260510091656 25 105 0.0 0.0 0.00 0.30 0.00 86 1013.1
20260510090713 25 105 0.0 0.0 0.00 0.30 0.00 86 1013.1
20260510085718 25 105 0.0 0.0 0.00 0.30 0.00 86 1013.0
20260510084718 25 105 0.0 0.0 0.00 0.30 0.00 86 1013.0
20260510083733 25 34 0.0 0.0 0.00 0.30 0.00 86 1013.0
20260510082719 25 34 0.0 0.0 0.00 0.30 0.00 86 1013.0
20260510081741 25 34 0.0 0.0 0.00 0.30 0.00 86 1013.1
20260510080730 25 34 0.0 0.0 0.00 0.30 0.00 86 1013.1
20260510074542 25 34 0.0 0.0 0.00 0.30 0.00 85 1013.2
20260510071336 26 17 1.6 4.8 0.00 0.30 0.00 85 1013.2
20260510065208 26 5 3.2 8.0 0.00 0.30 0.00 85 1013.3
20260510064153 26 30 3.2 6.4 0.00 0.30 0.00 85 1013.4
20260510063215 26 342 1.6 6.4 0.00 0.30 0.00 85 1013.5
20260510062226 26 20 3.2 6.4 0.00 0.30 0.00 85 1013.6
20260510061213 26 11 3.2 6.4 0.00 0.30 0.00 85 1013.8
20260510060232 26 350 3.2 6.4 0.00 0.30 0.00 85 1013.7
20260510055219 25 19 3.2 11.3 0.00 0.30 0.00 85 1013.8
20260510054231 25 18 4.8 11.3 0.00 0.30 0.00 85 1013.9
20260510053212 25 16 4.8 12.9 0.00 0.30 0.00 85 1013.9
20260510052214 25 5 4.8 12.9 0.00 0.30 0.00 85 1013.8
20260510051208 25 26 6.4 12.9 0.00 0.30 0.00 85 1013.9
20260510050221 26 343 6.4 14.5 0.00 0.30 0.00 85 1014.0
20260510045237 26 347 8.0 16.1 0.00 0.30 0.00 85 1013.9
20260510043123 26 346 6.4 12.9 0.00 0.30 0.00 84 1014.0
20260510042103 26 344 6.4 12.9 0.00 0.30 0.00 84 1014.2
20260510041055 25 332 4.8 11.3 0.00 0.30 0.00 84 1014.1
20260510040106 25 31 6.4 16.1 0.00 0.30 0.00 84 1014.2
20260510035123 25 10 6.4 17.7 0.00 0.30 0.30 84 1014.1
20260510034139 25 38 8.0 17.7 0.00 0.30 0.30 84 1014.0
20260510033113 26 348 9.7 17.7 0.00 0.30 0.30 84 1014.1
20260510032039 26 18 12.9 20.9 0.00 0.30 0.30 83 1014.0
20260510031024 26 335 14.5 20.9 0.00 0.30 0.30 83 1013.8
20260510024834 26 297 12.9 14.5 0.00 0.30 0.30 80 1014.1
20260510023833 26 322 11.3 14.5 0.00 0.30 0.30 78 1014.1
20260510022804 26 303 11.3 12.9 0.00 0.30 0.30 78 1014.2
20260510021749 26 294 9.7 14.5 0.00 0.30 0.30 79 1014.0
20260510020716 26 261 14.5 17.7 0.00 0.30 0.30 80 1014.0
20260510015650 26 225 17.7 25.7 0.00 0.30 0.30 80 1013.8
20260510014627 27 199 3.2 25.7 0.00 0.30 0.30 80 1013.7
20260510013601 26 333 3.2 11.3 0.00 0.30 0.30 80 1013.0
20260510012612 26 346 3.2 11.3 0.00 0.30 0.30 80 1012.8
20260510011632 26 339 4.8 8.0 0.00 0.30 0.30 81 1012.6
20260510010613 26 326 3.2 14.5 0.00 0.30 0.30 80 1012.5
20260510005546 26 340 11.3 22.5 0.00 0.30 0.30 80 1012.3
20260510004518 26 323 16.1 25.7 0.13 0.30 0.30 81 1012.2
20260510003521 26 309 19.3 25.7 0.64 0.30 0.30 80 1012.3
20260510002508 27 296 16.1 24.1 0.00 0.23 0.23 78 1012.5
20260510001459 26 317 11.3 24.1 0.13 0.23 0.23 81 1012.3
20260510000428 26 46 6.4 46.7 0.13 0.20 0.20 82 1012.1
20260509235445 26 355 22.5 46.7 1.24 0.20 0.20 79 1011.8
20260509233259 28 158 19.3 33.8 0.00 0.00 0.00 80 1010.5
20260509232316 28 141 20.9 37.0 0.00 0.00 0.00 80 1010.5
20260509231253 28 132 20.9 37.0 0.00 0.00 0.00 80 1010.3
20260509230257 28 138 19.3 29.0 0.00 0.00 0.00 80 1010.3
20260509225244 28 138 17.7 30.6 0.00 0.00 0.00 81 1010.5
20260509224236 28 146 16.1 30.6 0.00 0.00 0.00 80 1010.5
20260509222103 28 151 16.1 25.7 0.00 0.00 0.00 80 1010.4
20260509221108 28 144 17.7 33.8 0.00 0.00 0.00 79 1010.5
20260509214948 28 150 19.3 32.2 0.00 0.00 0.00 78 1010.4
20260509211702 28 163 20.9 35.4 0.00 0.00 0.00 76 1010.4
20260509210657 28 137 19.3 32.2 0.00 0.00 0.00 76 1010.6
20260509204457 28 119 20.9 33.8 0.00 0.00 0.00 75 1010.5
20260509203510 29 121 20.9 33.8 0.00 0.00 0.00 73 1010.6
20260509202508 28 125 20.9 35.4 0.00 0.00 0.00 74 1010.6
20260509201528 28 122 19.3 38.6 0.00 0.00 0.00 74 1010.6
20260509200531 28 117 19.3 38.6 0.00 0.00 0.00 76 1010.7
20260509195514 28 124 16.1 29.0 0.00 0.00 0.00 75 1010.9
20260509194530 29 123 12.9 25.7 0.00 0.00 0.00 74 1011.1
20260509193550 28 161 16.1 29.0 0.00 0.00 0.00 75 1011.2
20260509191356 30 136 12.9 25.7 0.00 0.00 0.00 72 1011.4
20260509190328 30 139 12.9 25.7 0.00 0.00 0.00 69 1011.4
20260509184125 32 194 14.5 22.5 0.00 0.00 0.00 50 1011.8
20260509181942 32 204 17.7 24.1 0.00 0.00 0.00 55 1011.9
20260509180922 32 221 12.9 24.1 0.00 0.00 0.00 55 1011.9
20260509175851 32 196 17.7 29.0 0.00 0.00 0.00 51 1011.9
20260509174853 31 225 19.3 29.0 0.00 0.00 0.00 58 1012.0
20260509173821 31 192 17.7 30.6 0.00 0.00 0.00 57 1012.0
20260509172837 31 221 20.9 30.6 0.00 0.00 0.00 57 1012.1
20260509171825 31 191 17.7 27.4 0.00 0.00 0.00 60 1012.2
20260509170842 31 200 12.9 22.5 0.00 0.00 0.00 57 1012.2
20260509165830 31 198 16.1 20.9 0.00 0.00 0.00 62 1012.3
20260509164813 30 205 14.5 24.1 0.00 0.00 0.00 61 1012.4
20260509163829 31 195 16.1 24.1 0.00 0.00 0.00 58 1012.7
20260509162820 30 208 17.7 24.1 0.00 0.00 0.00 57 1012.7
20260509155547 30 214 19.3 29.0 0.00 0.00 0.00 58 1013.0
20260509154541 30 200 20.9 29.0 0.00 0.00 0.00 65 1013.1
20260509152415 30 180 19.3 25.7 0.00 0.00 0.00 62 1013.3